[[{"header":{"parameterUnit":"m.s-1","parameterCategory":2,"la1":30.2991,"la2":30.254,"lo1":-89.0895,"lo2":-89.0444,"dy":0.0017,"dx":0.0017,"nx":28,"ny":28,"refTime":"2025-06-14T09:00:00:Z","depth":"0","parameterNumber":2,"parameterNumberName":"U-component_of_CURRENTS"},"data":[0,0,0,0,0,0,0,0,0,0,0,0,0,0,0,0,0,0,0,0,0,0,0,0,0,0,0,0,0,0,0,0,0,0,0,0,0,0,0,0,0,0,0,0,0,0,0,0,0,0,0,0,0,0,0,0,0,0,0.2784,0.2785,0,0.2859,0.2859,0.286,0.2867,0.2866,0.2866,0.2865,0.2898,0.29,0.2901,0,0,0,0,0,0,0,0,0,0,0,0,0,0.2687,0.2689,0.2784,0.2785,0.2786,0.2859,0.2859,0.286,0.2867,0.2866,0.2865,0.2865,0.2898,0.2899,0.2901,0,0,0,0,0,0,0,0,0,0,0,0,0,0.2741,0.2689,0.2784,0.2799,0.2802,0.2858,0.286,0.2861,0.2867,0.2866,0.2865,0.2864,0.2897,0.2899,0.2901,0.2935,0,0,0.2908,0.2909,0,0,0,0,0,0,0,0,0.2738,0.2744,0.2796,0.2798,0.2801,0.2854,0.2838,0.2884,0.2867,0.2841,0.2865,0.2864,0.2881,0.2885,0.29,0.2937,0.2938,0.2909,0.291,0.2911,0.2912,0,0,0,0,0,0,0,0.2734,0.2741,0.2812,0.2797,0.28,0.2816,0.2822,0.2847,0.2864,0.2843,0.2844,0.2855,0.2882,0.2897,0.29,0.2939,0.2909,0.2911,0.2912,0.2913,0.3021,0.3022,0,0,0,0,0,0,0.2727,0.2738,0.281,0.2815,0.2768,0.2819,0.2825,0.2837,0.2865,0.2869,0.2856,0.2855,0.2894,0.2898,0.2901,0.2969,0.2911,0.2913,0.2914,0.3019,0.3021,0.3023,0,0,0,0,0,0,0.2725,0.2733,0.2807,0.2779,0.2789,0.2821,0.2834,0.2839,0.2856,0.2875,0.2877,0.2868,0.2893,0.2898,0.2928,0.2969,0.2914,0.2916,0.3017,0.302,0.3022,0.3088,0,0,0,0,0,0,0.2721,0.2731,0.2739,0.2778,0.2791,0.2844,0.2835,0.2841,0.2864,0.2864,0.2886,0.2888,0.2893,0.2924,0.293,0.2971,0.2918,0.3015,0.3018,0.3021,0.3084,0.3093,0.31,0,0,0,0,0,0.2718,0.2733,0.2739,0.2748,0.28,0.2845,0.2854,0.2871,0.2866,0.2881,0.2894,0.2888,0.2946,0.2928,0.2934,0.2977,0.3014,0.3017,0.3021,0.3081,0.3091,0.31,0,0,0,0,0,0,0.2698,0.2737,0.2744,0.2771,0.2806,0.2847,0.2865,0.2876,0.29,0.2897,0.2906,0.291,0.2952,0.2953,0.2932,0.3015,0.298,0.2985,0.3024,0.3034,0.3041,0.3055,0.292,0,0,0,0,0,0.2698,0.2716,0.2758,0.278,0.2798,0.2832,0.2852,0.2867,0.2894,0.2904,0.2921,0.2941,0.2973,0.2991,0.3012,0.3059,0.3112,0.3091,0.3099,0.3105,0.312,0.325,0.3272,0.3034,0.3034,0.3034,0,0,0.2695,0.272,0.273,0.2777,0.2805,0.2844,0.2842,0.2877,0.2912,0.2904,0.295,0.2966,0.2989,0.3041,0.3061,0.3048,0.3201,0.311,0.3115,0.3127,0.3256,0.328,0.3301,0.3036,0.3036,0.3035,0,0,0.2705,0.2724,0.2745,0.278,0.2826,0.2853,0.2863,0.2909,0.293,0.2974,0.2984,0.3026,0.3063,0.3103,0.3124,0.3189,0.3233,0.3192,0.3253,0.3379,0.34,0.342,0.3521,0.3549,0.3203,0.3203,0.3203,0,0.2701,0.2744,0.276,0.2797,0.2839,0.2857,0.2906,0.293,0.2979,0.3023,0.299,0.3099,0.3099,0.3202,0.3212,0.321,0.3284,0.3215,0.3392,0.3413,0.3432,0.3531,0.3561,0.3206,0.3206,0.3206,0.3205,0,0.2735,0.2775,0.2795,0.2849,0.2887,0.2936,0.2977,0.3018,0.3039,0.3079,0.3172,0.3188,0.3266,0.3266,0.3251,0.3391,0.3401,0.3385,0.3373,0.346,0.3558,0.3588,0.3212,0.321,0.3209,0.3208,0,0,0.2727,0.2805,0.2815,0.287,0.293,0.2978,0.3033,0.3122,0.3205,0.3223,0.3354,0.3367,0.3396,0.3421,0.3431,0.3513,0.3685,0.3505,0.351,0.3613,0.3973,0.3908,0.3934,0.3717,0.3723,0.3727,0.399,0,0.2762,0.285,0.2875,0.2975,0.3038,0.3083,0.315,0.3223,0.329,0.3415,0.3448,0.3553,0.3452,0.3519,0.3584,0.3675,0.3768,0.3615,0.3866,0.3873,0.3812,0.3968,0.3756,0.3968,0.402,0.4025,0.4028,0,0.2805,0.2864,0.2961,0.3089,0.3121,0.3172,0.333,0.3397,0.3541,0.3602,0.3699,0.3741,0.3858,0.3769,0.3955,0.3872,0.3927,0.3972,0.3984,0.3921,0.3865,0.3888,0.4021,0.3942,0.4075,0.4071,0.4068,0,0.2838,0.2942,0.303,0.3069,0.319,0.3252,0.3327,0.3459,0.3545,0.3749,0.3844,0.3978,0.4074,0.4162,0.4183,0.412,0.4399,0.4334,0.4328,0.4323,0.4189,0.4163,0.428,0.4495,0.4495,0.4494,0.4493,0,0.2901,0.2984,0.3054,0.3109,0.3241,0.3304,0.3457,0.3562,0.3714,0.3833,0.3946,0.4064,0.4179,0.431,0.4319,0.4419,0.4515,0.4386,0.441,0.4203,0.4176,0.4134,0.4089,0.4504,0.4502,0.45,0.4498,0,0.2969,0.3,0.312,0.3229,0.3262,0.337,0.3504,0.3597,0.3753,0.3925,0.3992,0.4193,0.4373,0.4462,0.465,0.4597,0.4581,0.4701,0.4432,0.4418,0.4301,0.4266,0.4257,0.4142,0.4777,0.4777,0.4777,0,0.3028,0.3084,0.3198,0.3238,0.3292,0.3417,0.3474,0.3614,0.3689,0.3961,0.403,0.4288,0.4409,0.4673,0.4674,0.4766,0.4623,0.4624,0.4444,0.4316,0.4297,0.4105,0.3993,0.4305,0.4301,0.4298,0.4296,0,0.3137,0.3162,0.3235,0.3299,0.3353,0.3436,0.3521,0.3572,0.3723,0.3855,0.4026,0.4167,0.4425,0.4452,0.46,0.4598,0.4402,0.4565,0.4523,0.4027,0.374,0.3631,0.4102,0.4269,0.4272,0.4274,0.4275,0.4276,0.3205,0.3257,0.3285,0.3349,0.3387,0.3397,0.3416,0.3479,0.3568,0.3692,0.3899,0.4025,0.4207,0.4381,0.4371,0.4261,0.4239,0.4135,0.4138,0.3982,0.3751,0.4153,0.4278,0.428,0.4282,0.4284,0.4286,0,0.3232,0.325,0.3314,0.3328,0.3308,0.3354,0.3376,0.334,0.3351,0.3514,0.363,0.3775,0.3852,0.3965,0.3966,0.385,0.363,0.3778,0.3463,0.3402,0.3863,0.3718,0.3616,0.3616,0.3616,0.3616,0.3616,0.3616,0.3239,0.3251,0.3254,0.32,0.3198,0.311,0.3086,0.3059,0.3106,0.3146,0.3196,0.3345,0.3621,0.3778,0.3694,0.3587,0.3341,0.3173,0.3227,0.3559,0.3591,0.362,0.3475,0.3323,0.3322,0.2559,0.2554,0.255]},{"header":{"parameterUnit":"m.s-1","parameterCategory":2,"la1":30.2991,"la2":30.254,"lo1":-89.0895,"lo2":-89.0444,"dy":0.0017,"dx":0.0017,"nx":28,"ny":28,"refTime":"2025-06-14T09:00:00:Z","depth":"0","parameterNumber":3,"parameterNumberName":"V-component_of_CURRENTS"},"data":[0,0,0,0,0,0,0,0,0,0,0,0,0,0,0,0,0,0,0,0,0,0,0,0,0,0,0,0,0,0,0,0,0,0,0,0,0,0,0,0,0,0,0,0,0,0,0,0,0,0,0,0,0,0,0,0,0,0,0.013,0.013,0,0.0095,0.0094,0.0093,0.0057,0.0057,0.0056,0.0056,-0.0017,-0.0018,-0.002,0,0,0,0,0,0,0,0,0,0,0,0,0,0.0138,0.0138,0.013,0.013,0.013,0.0095,0.0094,0.0093,0.0057,0.0057,0.0056,0.0056,-0.0016,-0.0018,-0.002,0,0,0,0,0,0,0,0,0,0,0,0,0,0.012,0.0138,0.013,0.0108,0.0106,0.0095,0.0094,0.0093,0.0057,0.0057,0.0056,0.0056,-0.0016,-0.0018,-0.002,-0.0024,0,0,-0.0028,-0.0029,0,0,0,0,0,0,0,0,0.0122,0.012,0.0112,0.011,0.0108,0.0081,0.007,0.0053,0.0057,0.0074,0.0056,0.0055,0.0014,0.0009,0.0002,-0.0028,-0.0031,-0.0028,-0.0029,-0.003,-0.0031,0,0,0,0,0,0,0,0.0123,0.0121,0.0115,0.0112,0.0109,0.009,0.0087,0.0067,0.0046,0.0073,0.007,0.0069,0.0012,0.0004,-0.0,-0.0032,-0.0028,-0.003,-0.0031,-0.0032,-0.0065,-0.0064,0,0,0,0,0,0,0.0132,0.0123,0.0116,0.0114,0.0115,0.0091,0.0088,0.0089,0.0047,0.004,0.0069,0.0067,0.0009,0.0003,-0.0003,0.001,-0.003,-0.0032,-0.0034,-0.0066,-0.0065,-0.0064,0,0,0,0,0,0,0.0133,0.0132,0.0117,0.0118,0.0115,0.0092,0.0093,0.0088,0.0082,0.0045,0.0037,0.0068,0.0008,0.0001,-0.0011,0.0006,-0.0034,-0.0036,-0.0066,-0.0065,-0.0065,0.0022,0,0,0,0,0,0,0.0133,0.0133,0.0136,0.0119,0.0116,0.0123,0.0094,0.0088,0.0083,0.008,0.0042,0.0034,0.0007,-0.0007,-0.0013,0.0002,-0.0038,-0.0067,-0.0066,-0.0065,0.0018,0.0025,0.0031,0,0,0,0,0,0.0134,0.0147,0.0136,0.0135,0.0121,0.0124,0.0121,0.01,0.0083,0.009,0.0064,0.0035,-0.0005,-0.0008,-0.0016,-0.0001,-0.0067,-0.0066,-0.0065,0.0015,0.0024,0.0031,0,0,0,0,0,0,0.0155,0.0145,0.0132,0.0142,0.0137,0.0118,0.0121,0.0106,0.0091,0.0084,0.0045,0.0037,0.0029,0.0003,0.0,-0.0009,-0.0042,-0.0042,0.0021,0.0029,0.0036,0.0068,-0.004,0,0,0,0,0,0.0161,0.0166,0.0154,0.0162,0.0161,0.0141,0.0138,0.0126,0.011,0.0102,0.0077,0.0048,0.0028,0.0021,-0.0005,-0.0004,-0.0019,-0.0001,0.0005,0.0011,0.0032,0.0036,0.0046,-0.006,-0.006,-0.006,0,0,0.017,0.0166,0.0167,0.0166,0.0157,0.0176,0.0138,0.014,0.0157,0.0097,0.0107,0.0068,0.0032,0.0031,0.0025,0.0013,0.0029,0.0013,0.0019,0.0036,0.0038,0.0049,0.0058,-0.0059,-0.0059,-0.006,0,0,0.0202,0.0189,0.0208,0.0212,0.0208,0.0199,0.0204,0.019,0.0185,0.0185,0.0146,0.0127,0.0094,0.0081,0.0067,0.0097,0.006,0.0078,0.0147,0.015,0.0159,0.0167,0.0148,0.0154,0.0088,0.0088,0.0088,0,0.0215,0.0244,0.0215,0.0241,0.026,0.0216,0.0256,0.0243,0.0228,0.0241,0.0199,0.0171,0.0124,0.0146,0.0143,0.0115,0.0103,0.0121,0.0162,0.0169,0.0176,0.0154,0.0159,0.0093,0.0092,0.0092,0.0091,0,0.0266,0.0295,0.0309,0.0331,0.034,0.0368,0.0354,0.0357,0.0335,0.0329,0.0335,0.0275,0.0265,0.0236,0.0192,0.0222,0.0191,0.0166,0.0147,0.0193,0.0165,0.0169,0.0099,0.0097,0.0096,0.0095,0,0,0.0298,0.034,0.0349,0.0394,0.0399,0.0424,0.0443,0.0471,0.0513,0.0464,0.0522,0.0448,0.0413,0.0394,0.0339,0.0329,0.0337,0.027,0.0268,0.0262,0.0333,0.0301,0.0302,0.0323,0.0325,0.0326,0.029,0,0.0359,0.0445,0.044,0.053,0.0583,0.0561,0.0599,0.061,0.0603,0.064,0.0578,0.0598,0.0476,0.0479,0.0444,0.0378,0.0354,0.0348,0.0281,0.0279,0.0255,0.0308,0.0279,0.0245,0.0294,0.0294,0.0295,0,0.0426,0.0482,0.058,0.0671,0.0691,0.0726,0.0798,0.0827,0.0844,0.0843,0.083,0.0782,0.0753,0.0648,0.055,0.0553,0.0446,0.038,0.0377,0.0326,0.0256,0.0209,0.025,0.0078,0.03,0.03,0.0299,0,0.0502,0.0592,0.0682,0.071,0.0783,0.0825,0.0863,0.0894,0.0951,0.0984,0.1032,0.0968,0.0969,0.0834,0.0648,0.0612,0.0545,0.0481,0.035,0.0345,0.0299,0.0288,0.018,0.0418,0.0419,0.0419,0.0419,0,0.0593,0.0673,0.0728,0.0784,0.0909,0.0919,0.1039,0.1067,0.1127,0.1227,0.1147,0.1213,0.1019,0.0939,0.0735,0.0562,0.0606,0.0382,0.0349,0.0324,0.0317,0.0146,0.0027,0.0417,0.0418,0.0418,0.0418,0,0.0679,0.0708,0.0827,0.0915,0.0951,0.1043,0.1159,0.1237,0.1286,0.1416,0.144,0.1421,0.133,0.1109,0.0917,0.0707,0.041,0.0445,0.0415,0.038,0.0092,-0.002,-0.0164,-0.0262,0.031,0.031,0.0309,0,0.0738,0.0803,0.0925,0.0995,0.104,0.1162,0.1242,0.1314,0.1401,0.1547,0.162,0.1598,0.1592,0.1295,0.0935,0.0606,0.0405,0.0358,0.0279,0.0095,-0.0055,-0.0129,-0.0206,0.0236,0.0235,0.0234,0.0233,0,0.0855,0.0883,0.0972,0.1108,0.1205,0.1332,0.1452,0.1551,0.1649,0.1771,0.1913,0.1936,0.1671,0.1349,0.0906,0.0662,0.0218,0.0329,0.0155,-0.0097,-0.0201,-0.0316,0.0221,0.0225,0.0226,0.0226,0.0227,0.0227,0.0934,0.1011,0.1102,0.1235,0.1346,0.1485,0.1605,0.1734,0.191,0.2106,0.2109,0.2177,0.1722,0.113,0.0779,0.0154,0.0151,-0.005,-0.0164,-0.0215,-0.0326,0.0187,0.0144,0.0145,0.0145,0.0145,0.0146,0,0.1023,0.1097,0.1222,0.1372,0.149,0.1534,0.1729,0.1855,0.2072,0.2236,0.2356,0.2163,0.1589,0.1012,0.0164,-0.0267,-0.0428,-0.049,-0.0611,-0.0663,-0.0187,-0.0206,-0.0346,-0.0346,-0.0346,-0.0346,-0.0346,-0.0345,0.1078,0.119,0.1247,0.1455,0.1557,0.1727,0.1843,0.2053,0.2206,0.2409,0.2443,0.2446,0.2016,0.0517,-0.046,-0.0685,-0.0981,-0.1067,-0.1189,-0.0884,-0.0851,-0.0821,-0.0863,-0.1139,-0.114,-0.1616,-0.1621,-0.1625]}],[{"header":{"parameterUnit":"m.s-1","parameterCategory":2,"la1":30.2991,"la2":30.254,"lo1":-89.0895,"lo2":-89.0444,"dy":0.0017,"dx":0.0017,"nx":28,"ny":28,"refTime":"2025-06-14T09:00:00:Z","depth":"2","parameterNumber":2,"parameterNumberName":"U-component_of_CURRENTS"},"data":[0,0,0,0,0,0,0,0,0,0,0,0,0,0,0,0,0,0,0,0,0,0,0,0,0,0,0,0,0,0,0,0,0,0,0,0,0,0,0,0,0,0,0,0,0,0,0,0,0,0,0,0,0,0,0,0,0,0,0.2607,0.2608,0,0.2681,0.2681,0.2682,0.2702,0.2702,0.2702,0.2702,0.2741,0.2743,0.2744,0,0,0,0,0,0,0,0,0,0,0,0,0,0.2518,0.2519,0.2607,0.2608,0.2609,0.2681,0.2681,0.2682,0.2702,0.2702,0.2702,0.2702,0.2741,0.2742,0.2744,0,0,0,0,0,0,0,0,0,0,0,0,0,0.2568,0.2519,0.2607,0.263,0.2633,0.268,0.2681,0.2682,0.2702,0.2702,0.2702,0.2701,0.274,0.2742,0.2744,0.2761,0,0,0.275,0.2751,0,0,0,0,0,0,0,0,0.2565,0.2571,0.2625,0.2628,0.2632,0.2684,0.2665,0.2708,0.2702,0.2673,0.2702,0.2701,0.2721,0.2724,0.2736,0.2763,0.2765,0.275,0.2751,0.2752,0.2752,0,0,0,0,0,0,0,0.2562,0.2568,0.2634,0.2626,0.263,0.2648,0.2655,0.2673,0.2695,0.2676,0.2678,0.269,0.2722,0.2734,0.2737,0.2766,0.275,0.2752,0.2753,0.2753,0.286,0.2862,0,0,0,0,0,0,0.2556,0.2565,0.2631,0.2636,0.26,0.265,0.2657,0.2666,0.2696,0.2701,0.2691,0.2691,0.2731,0.2735,0.2738,0.2813,0.2752,0.2754,0.2755,0.2859,0.2861,0.2863,0,0,0,0,0,0,0.2554,0.2561,0.2628,0.2604,0.2614,0.2652,0.2662,0.2667,0.2688,0.2708,0.2712,0.2707,0.2731,0.2736,0.2771,0.2812,0.2754,0.2756,0.2857,0.2859,0.2862,0.2928,0,0,0,0,0,0,0.2551,0.256,0.2569,0.2604,0.2616,0.2669,0.2662,0.2669,0.2697,0.2698,0.2723,0.2726,0.2731,0.2769,0.2773,0.2814,0.2758,0.2855,0.2858,0.2861,0.2924,0.2933,0.2941,0,0,0,0,0,0.2548,0.2564,0.2569,0.2577,0.2625,0.267,0.2678,0.2702,0.2698,0.2717,0.2734,0.2726,0.2792,0.2771,0.2776,0.2819,0.2853,0.2857,0.2861,0.292,0.2931,0.294,0,0,0,0,0,0,0.2533,0.2569,0.2575,0.2601,0.2637,0.2675,0.2696,0.2708,0.2736,0.2738,0.2745,0.275,0.2796,0.2797,0.2774,0.2859,0.2823,0.2828,0.2867,0.2877,0.2885,0.2895,0.2759,0,0,0,0,0,0.2533,0.2552,0.2591,0.2614,0.2631,0.2663,0.2685,0.2704,0.2732,0.2745,0.2764,0.2787,0.2816,0.2837,0.2857,0.2904,0.2942,0.2935,0.2943,0.295,0.2963,0.3073,0.3093,0.2876,0.2875,0.2875,0,0,0.2532,0.2557,0.2566,0.2612,0.2638,0.2676,0.2675,0.2716,0.2751,0.2744,0.2795,0.2813,0.2832,0.2886,0.2908,0.2894,0.3032,0.2955,0.2961,0.297,0.308,0.3101,0.312,0.2878,0.2878,0.2877,0,0,0.2547,0.2563,0.2587,0.2619,0.2668,0.2693,0.2706,0.2754,0.2777,0.2825,0.2834,0.288,0.2915,0.2953,0.2971,0.3038,0.3066,0.3043,0.3104,0.3211,0.3231,0.3248,0.3323,0.3347,0.3056,0.3056,0.3056,0,0.2549,0.2587,0.2604,0.264,0.2678,0.2701,0.2748,0.2773,0.2828,0.2869,0.2847,0.2949,0.2952,0.3044,0.3061,0.3059,0.3117,0.3064,0.3225,0.3243,0.326,0.3332,0.3357,0.3059,0.3059,0.3059,0.3058,0,0.2578,0.262,0.2641,0.2692,0.2731,0.2778,0.2819,0.2866,0.2892,0.2927,0.3018,0.3039,0.3115,0.3115,0.3102,0.3229,0.323,0.3218,0.3201,0.3286,0.3356,0.3381,0.3065,0.3063,0.3062,0.3061,0,0,0.2575,0.2648,0.2661,0.271,0.2771,0.2815,0.2875,0.296,0.3039,0.3066,0.3193,0.3204,0.3238,0.3261,0.3272,0.3341,0.3489,0.3332,0.3336,0.341,0.3726,0.3573,0.3586,0.352,0.3525,0.3528,0.3727,0,0.2608,0.2692,0.2717,0.2811,0.2869,0.2915,0.298,0.3054,0.3123,0.3249,0.3281,0.3382,0.3288,0.3359,0.3413,0.348,0.3559,0.3435,0.363,0.3635,0.3493,0.3611,0.3326,0.3466,0.3751,0.3755,0.3758,0,0.2645,0.2705,0.2794,0.2913,0.2942,0.2992,0.3144,0.3213,0.3358,0.3423,0.3522,0.3562,0.3665,0.3591,0.3729,0.3663,0.3704,0.373,0.3739,0.3591,0.3529,0.3428,0.3501,0.38,0.3797,0.3794,0.3791,0,0.2674,0.2774,0.2853,0.2887,0.3002,0.3064,0.3141,0.3273,0.3358,0.3567,0.3664,0.3777,0.3881,0.393,0.3932,0.3874,0.4095,0.4031,0.3932,0.3921,0.371,0.3671,0.4165,0.4165,0.4164,0.4164,0.4163,0,0.2722,0.2799,0.2873,0.2926,0.3045,0.3111,0.3257,0.3368,0.3527,0.3641,0.3763,0.3871,0.3977,0.4081,0.4055,0.4063,0.4199,0.3971,0.3978,0.3721,0.3682,0.3985,0.3962,0.4171,0.4169,0.4168,0.4167,0,0.2779,0.2803,0.2916,0.303,0.3066,0.3166,0.3306,0.339,0.3561,0.3736,0.3806,0.4007,0.412,0.4185,0.4318,0.4222,0.4245,0.4222,0.3889,0.385,0.3971,0.3949,0.4141,0.4138,0.4135,0.4133,0.4131,0,0.2825,0.2884,0.3004,0.3034,0.3087,0.3209,0.3263,0.3409,0.3472,0.376,0.3816,0.4045,0.4095,0.4235,0.418,0.4165,0.424,0.3892,0.3697,0.3989,0.3978,0.396,0.3942,0.3462,0.3455,0.3449,0.3444,0,0.2922,0.2952,0.302,0.3094,0.3132,0.3226,0.3308,0.3338,0.3493,0.3607,0.3752,0.384,0.3988,0.3853,0.3884,0.3814,0.3854,0.3763,0.424,0.3476,0.3355,0.334,0.3345,0.339,0.3396,0.34,0.3403,0.3405,0.2995,0.3023,0.3061,0.3133,0.3168,0.32,0.3222,0.3242,0.3306,0.3375,0.3534,0.3532,0.3589,0.3437,0.3346,0.3316,0.354,0.3384,0.3402,0.3426,0.3276,0.3152,0.3123,0.3126,0.3129,0.3132,0.3135,0,0.3022,0.3019,0.3084,0.3109,0.3111,0.318,0.3194,0.3141,0.3091,0.3122,0.3151,0.2877,0.2809,0.2882,0.2742,0.2726,0.2687,0.2628,0.2569,0.2626,0.2676,0.2484,0.2124,0.212,0.2117,0.2113,0,0,0.3019,0.3018,0.302,0.3008,0.3036,0.2996,0.2975,0.2859,0.2814,0.2646,0.2545,0.2676,0.2783,0.2393,0.2369,0.2236,0.2405,0.215,0.2974,0.2964,0.3008,0.3139,0.2911,0,0,0,0,0]},{"header":{"parameterUnit":"m.s-1","parameterCategory":2,"la1":30.2991,"la2":30.254,"lo1":-89.0895,"lo2":-89.0444,"dy":0.0017,"dx":0.0017,"nx":28,"ny":28,"refTime":"2025-06-14T09:00:00:Z","depth":"2","parameterNumber":3,"parameterNumberName":"V-component_of_CURRENTS"},"data":[0,0,0,0,0,0,0,0,0,0,0,0,0,0,0,0,0,0,0,0,0,0,0,0,0,0,0,0,0,0,0,0,0,0,0,0,0,0,0,0,0,0,0,0,0,0,0,0,0,0,0,0,0,0,0,0,0,0,0.0013,0.0013,0,-0.0023,-0.0024,-0.0024,-0.0058,-0.0058,-0.0058,-0.0058,-0.013,-0.0131,-0.0133,0,0,0,0,0,0,0,0,0,0,0,0,0,0.0019,0.0019,0.0013,0.0013,0.0012,-0.0023,-0.0024,-0.0024,-0.0058,-0.0058,-0.0058,-0.0058,-0.0129,-0.0131,-0.0133,0,0,0,0,0,0,0,0,0,0,0,0,0,0.0001,0.0019,0.0013,-0.0007,-0.0009,-0.0023,-0.0024,-0.0025,-0.0058,-0.0058,-0.0058,-0.0058,-0.0128,-0.0131,-0.0133,-0.0143,0,0,-0.0141,-0.0142,0,0,0,0,0,0,0,0,0.0002,0.0,-0.0004,-0.0005,-0.0008,-0.0034,-0.0048,-0.0065,-0.0058,-0.0042,-0.0058,-0.0059,-0.0099,-0.0104,-0.0113,-0.0147,-0.015,-0.0141,-0.0143,-0.0144,-0.0145,0,0,0,0,0,0,0,0.0003,0.0002,-0.0004,-0.0004,-0.0006,-0.0025,-0.0028,-0.0051,-0.0071,-0.0043,-0.0045,-0.0045,-0.0101,-0.0111,-0.0115,-0.0151,-0.0141,-0.0144,-0.0145,-0.0146,-0.0183,-0.0182,0,0,0,0,0,0,0.0015,0.0003,-0.0003,-0.0005,-0.0001,-0.0025,-0.0028,-0.0027,-0.007,-0.0076,-0.0045,-0.0046,-0.0106,-0.0112,-0.0118,-0.0106,-0.0144,-0.0146,-0.0148,-0.0184,-0.0183,-0.0182,0,0,0,0,0,0,0.0015,0.0015,-0.0001,0.0,-0.0003,-0.0024,-0.0023,-0.0028,-0.0033,-0.007,-0.0077,-0.0044,-0.0106,-0.0114,-0.0125,-0.011,-0.0148,-0.015,-0.0184,-0.0183,-0.0183,-0.01,0,0,0,0,0,0,0.0015,0.0015,0.0019,0.0001,-0.0002,0.0004,-0.0023,-0.0028,-0.0032,-0.0034,-0.0072,-0.0079,-0.0107,-0.012,-0.0127,-0.0115,-0.0152,-0.0185,-0.0184,-0.0183,-0.0104,-0.0097,-0.0091,0,0,0,0,0,0.0016,0.003,0.0019,0.0018,0.0004,0.0005,0.0002,-0.0016,-0.0031,-0.0024,-0.0049,-0.0078,-0.0119,-0.0122,-0.013,-0.0118,-0.0186,-0.0184,-0.0183,-0.0106,-0.0098,-0.0091,0,0,0,0,0,0,0.0037,0.0027,0.0015,0.0025,0.002,0.0001,0.0004,-0.001,-0.0025,-0.0029,-0.0069,-0.0077,-0.0084,-0.0111,-0.0114,-0.0126,-0.0158,-0.0158,-0.0097,-0.009,-0.0083,-0.0055,-0.0154,0,0,0,0,0,0.0043,0.0048,0.0037,0.0045,0.0044,0.0024,0.0021,0.0011,-0.0004,-0.0012,-0.0036,-0.0065,-0.0087,-0.0094,-0.0121,-0.0122,-0.0148,-0.0122,-0.0115,-0.0109,-0.0092,-0.0108,-0.0101,-0.0178,-0.0178,-0.0178,0,0,0.0053,0.0049,0.0051,0.005,0.0041,0.0056,0.0021,0.0025,0.004,-0.0017,-0.0009,-0.0045,-0.0084,-0.0087,-0.0093,-0.0105,-0.0105,-0.0108,-0.0102,-0.0088,-0.0106,-0.0099,-0.0092,-0.0177,-0.0177,-0.0178,0,0,0.0085,0.0072,0.0091,0.0093,0.009,0.0081,0.0086,0.0073,0.0068,0.0069,0.0031,0.0011,-0.0021,-0.004,-0.0056,-0.0028,-0.0074,-0.0043,0.0019,0.0003,0.0009,0.0015,-0.0023,-0.0021,-0.0035,-0.0035,-0.0035,0,0.0098,0.0121,0.0097,0.0121,0.0135,0.0098,0.0132,0.0121,0.0107,0.0114,0.0083,0.0048,0.0004,0.0013,0.0015,-0.0012,-0.0035,-0.0006,0.0013,0.0018,0.0022,-0.0017,-0.0017,-0.0031,-0.0031,-0.0031,-0.0032,0,0.0142,0.0167,0.0181,0.0198,0.0208,0.023,0.0219,0.0224,0.0207,0.0196,0.0195,0.014,0.0126,0.0099,0.0062,0.0075,0.0043,0.002,-0.0002,0.0035,-0.001,-0.001,-0.0025,-0.0026,-0.0027,-0.0028,0,0,0.0171,0.0206,0.0215,0.0251,0.0256,0.0278,0.0298,0.0318,0.0351,0.031,0.0355,0.0286,0.0254,0.0234,0.0185,0.0163,0.015,0.011,0.0107,0.0082,0.0104,0.0042,0.0035,0.0135,0.0136,0.0136,0.0055,0,0.0221,0.0294,0.0291,0.0367,0.0411,0.0394,0.0427,0.0435,0.0429,0.0458,0.0399,0.0409,0.0307,0.0311,0.0269,0.0189,0.0155,0.0174,0.0064,0.0061,0.0009,0.0035,0.0056,-0.0017,0.0054,0.0054,0.0054,0,0.0274,0.0324,0.0405,0.0481,0.0498,0.0529,0.059,0.0617,0.0629,0.063,0.0616,0.0567,0.0528,0.0445,0.0317,0.0335,0.0228,0.0152,0.0147,0.0066,-0.0001,-0.0041,-0.0022,0.0052,0.0052,0.0052,0.0053,0,0.0336,0.0412,0.0486,0.0508,0.0572,0.0609,0.0646,0.0671,0.0724,0.0752,0.0793,0.0717,0.0723,0.0568,0.0384,0.0358,0.0248,0.019,0.0031,0.0024,0.0009,-0.0,0.0109,0.0109,0.0109,0.011,0.011,0,0.0402,0.0467,0.0523,0.0571,0.0677,0.0689,0.0794,0.0823,0.088,0.0968,0.0893,0.0936,0.076,0.0663,0.0452,0.0243,0.0293,0.0049,0.0008,0.0034,0.0028,0.0065,0.0061,0.0106,0.0107,0.0108,0.0108,0,0.0464,0.0488,0.0584,0.0668,0.0713,0.0786,0.0908,0.0972,0.1023,0.1142,0.1163,0.1129,0.0997,0.0785,0.0567,0.0362,0.0145,0.0059,0.0089,0.0051,-0.0095,-0.0094,-0.014,-0.0142,-0.0145,-0.0147,-0.0148,0,0.0502,0.0562,0.0677,0.0728,0.0769,0.0884,0.0965,0.1047,0.1121,0.1245,0.1301,0.125,0.1187,0.0838,0.0503,0.0149,0.0127,-0.0058,-0.0119,-0.008,-0.0116,-0.0111,-0.0107,-0.0115,-0.0116,-0.0117,-0.0117,0,0.0577,0.0606,0.0681,0.0806,0.0889,0.1038,0.116,0.1245,0.1349,0.1441,0.1523,0.1488,0.1184,0.085,0.0412,0.0161,-0.001,-0.0093,-0.0025,-0.006,-0.0064,-0.0097,-0.0092,-0.0126,-0.0125,-0.0125,-0.0124,-0.0124,0.0633,0.0671,0.0752,0.0873,0.0998,0.1177,0.131,0.1416,0.1575,0.1706,0.1647,0.159,0.1233,0.0645,0.0272,-0.0091,-0.0092,-0.024,-0.0233,-0.0226,-0.0213,-0.0222,-0.0312,-0.0313,-0.0313,-0.0313,-0.0313,0,0.0669,0.071,0.0813,0.0952,0.1107,0.1217,0.1429,0.1544,0.172,0.177,0.1797,0.1411,0.1049,0.0662,0.0114,-0.0246,-0.0258,-0.0351,-0.0273,-0.0263,-0.0255,-0.024,-0.0348,-0.0349,-0.035,-0.0351,0,0,0.0682,0.0733,0.0771,0.1004,0.1169,0.1435,0.1595,0.1725,0.1794,0.1825,0.1763,0.1628,0.1145,0.0735,0.0276,-0.0014,-0.006,-0.0088,-0.0027,0.0129,0.0142,-0.0166,-0.0131,0,0,0,0,0]}],[{"header":{"parameterUnit":"m.s-1","parameterCategory":2,"la1":30.2991,"la2":30.254,"lo1":-89.0895,"lo2":-89.0444,"dy":0.0017,"dx":0.0017,"nx":28,"ny":28,"refTime":"2025-06-14T09:00:00:Z","depth":"4","parameterNumber":2,"parameterNumberName":"U-component_of_CURRENTS"},"data":[0,0,0,0,0,0,0,0,0,0,0,0,0,0,0,0,0,0,0,0,0,0,0,0,0,0,0,0,0,0,0,0,0,0,0,0,0,0,0,0,0,0,0,0,0,0,0,0,0,0,0,0,0,0,0,0,0,0,0.1522,0.1523,0,0.1551,0.1551,0.1551,0.1596,0.1597,0.1599,0.16,0.168,0.1681,0.1682,0,0,0,0,0,0,0,0,0,0,0,0,0,0.1448,0.1449,0.1522,0.1523,0.1524,0.1551,0.1551,0.1551,0.1596,0.1598,0.1599,0.1601,0.168,0.1681,0.1682,0,0,0,0,0,0,0,0,0,0,0,0,0,0.1474,0.1449,0.1522,0.1553,0.1557,0.1551,0.1551,0.1551,0.1596,0.1598,0.16,0.1601,0.168,0.1681,0.1682,0.1652,0,0,0.1687,0.1687,0,0,0,0,0,0,0,0,0.1472,0.1476,0.1548,0.1551,0.1555,0.1577,0.1555,0.1589,0.1595,0.1575,0.16,0.1602,0.1652,0.1656,0.1649,0.1656,0.166,0.1687,0.1688,0.1688,0.1689,0,0,0,0,0,0,0,0.147,0.1474,0.1528,0.1549,0.1553,0.1547,0.1552,0.156,0.16,0.1577,0.1582,0.1593,0.1654,0.1648,0.1652,0.1661,0.1687,0.1688,0.1689,0.1689,0.1792,0.1794,0,0,0,0,0,0,0.1478,0.1473,0.1527,0.153,0.1523,0.1547,0.1553,0.1563,0.1599,0.1607,0.1591,0.1595,0.1644,0.165,0.1655,0.174,0.1688,0.169,0.169,0.1791,0.1793,0.1795,0,0,0,0,0,0,0.1476,0.1483,0.1526,0.1506,0.1512,0.1547,0.1558,0.1563,0.1598,0.1609,0.1618,0.1626,0.1646,0.1653,0.1707,0.1739,0.169,0.1692,0.1788,0.1791,0.1794,0.1834,0,0,0,0,0,0,0.1474,0.1482,0.1503,0.1507,0.1514,0.1548,0.1557,0.1562,0.1602,0.1608,0.1642,0.1649,0.1648,0.1705,0.1708,0.174,0.1693,0.1786,0.179,0.1793,0.183,0.1838,0.1844,0,0,0,0,0,0.1471,0.1482,0.1504,0.1512,0.1539,0.1549,0.1552,0.1579,0.1602,0.1617,0.1654,0.165,0.173,0.1707,0.1711,0.1744,0.1784,0.1789,0.1793,0.1827,0.1836,0.1844,0,0,0,0,0,0,0.146,0.1489,0.1512,0.1534,0.1557,0.156,0.1578,0.1598,0.1634,0.1657,0.1667,0.1676,0.1738,0.1737,0.1712,0.1787,0.1759,0.1764,0.1784,0.1792,0.1799,0.1821,0.1694,0,0,0,0,0,0.1469,0.149,0.1514,0.1537,0.155,0.1573,0.1587,0.1611,0.1637,0.1656,0.168,0.1715,0.1748,0.177,0.1793,0.1826,0.1848,0.1854,0.1861,0.1867,0.1889,0.1958,0.1973,0.1809,0.1809,0.1809,0,0,0.1473,0.1492,0.1507,0.1538,0.1556,0.1573,0.1586,0.162,0.1652,0.1658,0.1716,0.1742,0.1765,0.181,0.1837,0.1819,0.1922,0.1872,0.1877,0.1896,0.1964,0.198,0.1994,0.1812,0.1811,0.1811,0,0,0.1475,0.1509,0.1526,0.1547,0.1589,0.1597,0.1618,0.1648,0.1686,0.1739,0.1758,0.1814,0.1851,0.1876,0.1892,0.1953,0.1959,0.196,0.2009,0.2075,0.2089,0.2102,0.2132,0.2147,0.196,0.196,0.196,0,0.1483,0.1508,0.1532,0.1552,0.1576,0.1613,0.1636,0.1667,0.1718,0.1769,0.1774,0.1871,0.1886,0.195,0.1974,0.197,0.2,0.1969,0.2084,0.2097,0.211,0.2138,0.2154,0.1963,0.1962,0.1962,0.1962,0,0.1492,0.1524,0.1535,0.1573,0.1596,0.1625,0.167,0.172,0.1774,0.1822,0.1922,0.1945,0.2011,0.2016,0.2016,0.2108,0.2097,0.2086,0.2059,0.2129,0.2153,0.217,0.1966,0.1965,0.1965,0.1964,0,0,0.1473,0.1532,0.1539,0.1571,0.1618,0.1637,0.17,0.1775,0.1849,0.1914,0.2006,0.2066,0.2108,0.213,0.2134,0.2184,0.2283,0.2179,0.2181,0.2203,0.2418,0.2226,0.2225,0.2297,0.2301,0.2304,0.2392,0,0.1479,0.1518,0.1547,0.1594,0.1616,0.1677,0.1743,0.1827,0.1897,0.1994,0.2066,0.216,0.2141,0.219,0.2237,0.2283,0.2332,0.2259,0.2353,0.2356,0.2173,0.2239,0.2315,0.2404,0.2408,0.2411,0.2413,0,0.1469,0.1502,0.155,0.1633,0.1655,0.1702,0.1817,0.1896,0.2038,0.2097,0.2192,0.2251,0.2351,0.232,0.2438,0.2398,0.2423,0.2441,0.2445,0.2269,0.2195,0.2328,0.2442,0.244,0.2437,0.2435,0.2434,0,0.1419,0.1498,0.1544,0.1569,0.167,0.1736,0.1821,0.1953,0.203,0.2193,0.2245,0.2369,0.2437,0.2508,0.2537,0.2521,0.264,0.2618,0.2465,0.2451,0.2578,0.2564,0.2711,0.2711,0.2711,0.2711,0.271,0,0.1379,0.1415,0.1547,0.156,0.1651,0.1762,0.1866,0.1965,0.2116,0.2184,0.2322,0.2352,0.2495,0.2558,0.2585,0.2558,0.2685,0.2491,0.2471,0.2589,0.2575,0.2588,0.2572,0.2714,0.2713,0.2713,0.2712,0,0.1261,0.1368,0.1405,0.1545,0.1616,0.1685,0.1853,0.192,0.2102,0.2179,0.2242,0.239,0.2474,0.2558,0.2665,0.2591,0.2609,0.2564,0.2676,0.2658,0.2368,0.2354,0.2428,0.2422,0.2417,0.2413,0.241,0,0.1187,0.1205,0.1343,0.139,0.1454,0.1589,0.1674,0.188,0.1943,0.2146,0.2167,0.2319,0.2375,0.2393,0.2491,0.2541,0.2505,0.2501,0.2447,0.2371,0.2345,0.2339,0.2331,0.2402,0.2401,0.2399,0.2398,0,0.0996,0.1065,0.1073,0.1193,0.129,0.1381,0.1537,0.1587,0.1814,0.1958,0.2051,0.2119,0.2189,0.2279,0.2327,0.2349,0.2505,0.245,0.246,0.2409,0.234,0.2318,0.2317,0.2381,0.2384,0.2385,0.2386,0,0.0807,0.0786,0.0848,0.0944,0.1056,0.1172,0.1282,0.141,0.1537,0.1816,0.1817,0.1983,0.214,0.2175,0.221,0.2229,0.2208,0.215,0.2176,0.2196,0.2075,0.1951,0.1871,0,0,0,0,0,0.0609,0.06,0.0629,0.0724,0.0828,0.0952,0.1177,0.1313,0.1545,0.1561,0.1712,0.1775,0.1861,0.1965,0.1941,0.2084,0.2194,0.2044,0.2134,0.2287,0.2306,0.2184,0,0,0,0,0,0,0.0492,0.047,0.053,0.0527,0.0591,0.0721,0.0888,0.1067,0.1143,0.1382,0.1468,0.1619,0.1757,0.1822,0.1876,0.1904,0.1921,0.2162,0.2157,0.2276,0.2293,0.2309,0.219,0,0,0,0,0]},{"header":{"parameterUnit":"m.s-1","parameterCategory":2,"la1":30.2991,"la2":30.254,"lo1":-89.0895,"lo2":-89.0444,"dy":0.0017,"dx":0.0017,"nx":28,"ny":28,"refTime":"2025-06-14T09:00:00:Z","depth":"4","parameterNumber":3,"parameterNumberName":"V-component_of_CURRENTS"},"data":[0,0,0,0,0,0,0,0,0,0,0,0,0,0,0,0,0,0,0,0,0,0,0,0,0,0,0,0,0,0,0,0,0,0,0,0,0,0,0,0,0,0,0,0,0,0,0,0,0,0,0,0,0,0,0,0,0,0,-0.0048,-0.0048,0,-0.0072,-0.0072,-0.0073,-0.0103,-0.0104,-0.0104,-0.0104,-0.0166,-0.0167,-0.0168,0,0,0,0,0,0,0,0,0,0,0,0,0,-0.0049,-0.0049,-0.0048,-0.0048,-0.0049,-0.0072,-0.0072,-0.0073,-0.0103,-0.0104,-0.0104,-0.0105,-0.0165,-0.0167,-0.0168,0,0,0,0,0,0,0,0,0,0,0,0,0,-0.006,-0.0049,-0.0048,-0.0066,-0.0067,-0.0072,-0.0072,-0.0073,-0.0103,-0.0104,-0.0104,-0.0105,-0.0165,-0.0167,-0.0169,-0.0169,0,0,-0.0175,-0.0175,0,0,0,0,0,0,0,0,-0.0059,-0.006,-0.0063,-0.0064,-0.0066,-0.0084,-0.0095,-0.0107,-0.0103,-0.0091,-0.0104,-0.0105,-0.0141,-0.0145,-0.0149,-0.0172,-0.0175,-0.0175,-0.0176,-0.0177,-0.0177,0,0,0,0,0,0,0,-0.0058,-0.0059,-0.0059,-0.0063,-0.0065,-0.0079,-0.0081,-0.0097,-0.0114,-0.0092,-0.0094,-0.0094,-0.0142,-0.0147,-0.0151,-0.0176,-0.0175,-0.0176,-0.0178,-0.0178,-0.0216,-0.0216,0,0,0,0,0,0,-0.0051,-0.0058,-0.0058,-0.006,-0.0062,-0.0078,-0.0081,-0.0079,-0.0113,-0.0118,-0.0094,-0.0096,-0.0144,-0.0149,-0.0153,-0.0157,-0.0177,-0.0179,-0.018,-0.0216,-0.0216,-0.0216,0,0,0,0,0,0,-0.0051,-0.0051,-0.0057,-0.0059,-0.006,-0.0077,-0.0075,-0.0079,-0.0085,-0.0114,-0.012,-0.0096,-0.0144,-0.0151,-0.0163,-0.0159,-0.0179,-0.0181,-0.0217,-0.0216,-0.0216,-0.0163,0,0,0,0,0,0,-0.0051,-0.005,-0.0047,-0.0058,-0.006,-0.0055,-0.0075,-0.0079,-0.0083,-0.0086,-0.0117,-0.0124,-0.0145,-0.016,-0.0165,-0.0162,-0.0183,-0.0217,-0.0216,-0.0216,-0.0165,-0.0161,-0.0158,0,0,0,0,0,-0.0051,-0.004,-0.0047,-0.0047,-0.0055,-0.0055,-0.0057,-0.0072,-0.0083,-0.0081,-0.0101,-0.0123,-0.0162,-0.0161,-0.0167,-0.0165,-0.0217,-0.0216,-0.0216,-0.0167,-0.0162,-0.0158,0,0,0,0,0,0,-0.0039,-0.0043,-0.005,-0.0042,-0.0047,-0.0059,-0.0058,-0.0068,-0.0082,-0.0087,-0.0117,-0.0124,-0.0135,-0.0156,-0.0154,-0.0176,-0.0195,-0.0196,-0.0156,-0.0151,-0.0148,-0.0143,-0.0184,0,0,0,0,0,-0.0034,-0.0029,-0.0036,-0.003,-0.003,-0.0044,-0.0047,-0.0056,-0.0068,-0.0075,-0.0096,-0.012,-0.0138,-0.0149,-0.0168,-0.0176,-0.0209,-0.0181,-0.0177,-0.0174,-0.0174,-0.0215,-0.0215,-0.0215,-0.0215,-0.0215,0,0,-0.0028,-0.003,-0.0028,-0.0028,-0.0034,-0.0026,-0.0047,-0.0046,-0.0041,-0.0079,-0.0081,-0.0106,-0.0137,-0.0146,-0.0154,-0.0164,-0.0191,-0.0174,-0.017,-0.0173,-0.0215,-0.0215,-0.0215,-0.0215,-0.0215,-0.0215,0,0,-0.0011,-0.0015,-0.0005,-0.0004,-0.0007,-0.0012,-0.0009,-0.0019,-0.0026,-0.0028,-0.0057,-0.0079,-0.0101,-0.0125,-0.0139,-0.0128,-0.0169,-0.0135,-0.0113,-0.0151,-0.0152,-0.0153,-0.0192,-0.0197,-0.0134,-0.0134,-0.0134,0,-0.0005,0.0006,-0.0002,0.001,0.0015,-0.0002,0.0011,0.0007,-0.0006,-0.0012,-0.0022,-0.0066,-0.0092,-0.011,-0.0107,-0.012,-0.0149,-0.0124,-0.0146,-0.0148,-0.015,-0.019,-0.0196,-0.0131,-0.0131,-0.0132,-0.0132,0,0.0018,0.0029,0.0037,0.0046,0.0051,0.0059,0.0056,0.0056,0.0045,0.0034,0.0015,-0.0021,-0.0049,-0.0062,-0.008,-0.0103,-0.0122,-0.0135,-0.0155,-0.0146,-0.019,-0.0197,-0.0127,-0.0128,-0.0129,-0.013,0,0,0.0025,0.0048,0.005,0.0067,0.007,0.0082,0.009,0.0091,0.0095,0.0073,0.0068,0.0032,0.0005,-0.0013,-0.0045,-0.008,-0.0117,-0.0108,-0.0111,-0.0143,-0.0205,-0.0196,-0.0204,-0.0133,-0.0134,-0.0134,-0.023,0,0.0042,0.0077,0.008,0.0115,0.0134,0.0128,0.0146,0.0145,0.0127,0.0118,0.0074,0.0059,0.0027,0.0014,-0.0026,-0.0094,-0.0133,-0.009,-0.0213,-0.0216,-0.0207,-0.0211,-0.0137,-0.0235,-0.0237,-0.0238,-0.0239,0,0.0058,0.0083,0.012,0.0161,0.017,0.019,0.0205,0.0219,0.0198,0.0184,0.0147,0.0109,0.0058,0.0031,-0.0082,-0.0053,-0.0122,-0.0179,-0.0184,-0.02,-0.0221,-0.0248,-0.0253,-0.0252,-0.0251,-0.025,-0.0249,0,0.007,0.011,0.0143,0.0155,0.0197,0.0216,0.0239,0.0235,0.0257,0.022,0.0218,0.0144,0.0112,0.0017,-0.0096,-0.0092,-0.0228,-0.0238,-0.03,-0.0301,-0.0303,-0.0301,-0.0322,-0.0322,-0.0322,-0.0321,-0.0321,0,0.0085,0.0111,0.0156,0.0178,0.0237,0.025,0.0298,0.0302,0.0308,0.0335,0.026,0.0249,0.0107,0.0015,-0.009,-0.0215,-0.0226,-0.03,-0.0324,-0.0279,-0.0273,-0.0308,-0.0305,-0.0325,-0.0324,-0.0323,-0.0323,0,0.0094,0.0111,0.0165,0.0222,0.0247,0.0292,0.0364,0.0397,0.0389,0.0414,0.041,0.0322,0.02,0.005,-0.012,-0.0199,-0.0326,-0.037,-0.0313,-0.0332,-0.0376,-0.037,-0.0447,-0.0447,-0.0447,-0.0448,-0.0448,0,0.0102,0.013,0.0211,0.0257,0.0287,0.0356,0.0414,0.044,0.0478,0.0465,0.0485,0.0367,0.0291,0.0067,-0.0106,-0.0322,-0.0347,-0.0415,-0.0393,-0.0373,-0.0389,-0.0382,-0.0375,-0.0449,-0.0449,-0.0449,-0.0449,0,0.0143,0.017,0.0237,0.0325,0.0392,0.0458,0.0535,0.0566,0.0595,0.0584,0.056,0.0431,0.0284,0.0087,-0.0091,-0.0241,-0.0371,-0.042,-0.042,-0.04,-0.0376,-0.0391,-0.0383,-0.0451,-0.045,-0.045,-0.045,0,0.0203,0.025,0.0341,0.0414,0.0493,0.0544,0.0571,0.0626,0.0662,0.0648,0.0633,0.0469,0.0366,0.0127,-0.0031,-0.0188,-0.0223,-0.0259,-0.0268,-0.0268,-0.0189,-0.0131,-0.0152,0,0,0,0,0,0.0265,0.0325,0.0414,0.0502,0.0572,0.0597,0.0658,0.0674,0.0689,0.0696,0.0672,0.0542,0.0299,0.0185,0.0032,-0.0061,-0.0271,-0.0247,-0.0321,-0.0459,-0.0457,-0.0394,0,0,0,0,0,0,0.0314,0.0415,0.0441,0.0559,0.0607,0.0682,0.0704,0.0704,0.0712,0.0699,0.0577,0.0517,0.0277,0.0393,0.0035,-0.0018,-0.0083,-0.0363,-0.0366,-0.046,-0.0458,-0.0457,-0.0391,0,0,0,0,0]}]]